www.pogodaiklimat.ru

Погода и климат >> Архив погоды >> Россия >> Якутия >> Усть-Чаркы


ПОГОДА в Усть-Чарках

  • Прогноз погоды в Усть-Чарках
  • Монитор погоды в Усть-Чарках
  • Климат города

АРХИВ ПОГОДЫ в Усть-Чарках

Время (UTC), дата Ветер
(напр.,м/с)
 
Видим.   Явления Облачность Т
(С)
Тd
(С)
f
(%)
Тe
(С)
Тes
(С)
Комфортность P
(гПа)
Po
(гПа)
Тmin
(С)
Tmax
(С)
R
(мм)
R24
(мм)
S
(см)
06 12.12 ЮВ 2 50 км 3/0
[Ac lent]
-35.6 -37.7 81 -44 -44 опасность
обморожения
1023.9 984.4
09 12.12 штиль 0 50 км 8/0
[Ci fib]
-34.7 -37.1 79 -35 -35 опасность
обморожения
1023.5 984.1 -34.6
12 12.12 ЮВ 1 50 км 10/0
[As trans]
-32.7 -35.1 79 -37 -37 опасность
обморожения
1022.7 983.7
15 12.12 ЮВ 2 50 км 10/0
[As trans Cs]
-31.0 -33.4 79 -39 -39 опасность
обморожения
1022.3 983.6
18 12.12 ЮВ 2 50 км {снег} 10/0
[As trans Cs]
-30.7 -33.0 80 -38 -38 опасность
обморожения
1022.0 983.4
21 12.12 ЮВ 2 50 км 10/0
[As trans Cs]
-29.6 -32.0 80 -37 -37 опасность
обморожения
1022.4 983.9 -34.7 0.4 12
00 13.12 В 2 50 км 8/0
[As trans Cs]
-31.5 -33.9 79 -39 -39 опасность
обморожения
1023.6 984.7
03 13.12 ЮВ 2 50 км 1/0
[As trans]
-32.2 -34.6 79 -40 -40 опасность
обморожения
1023.1 984.2
06 13.12 В 3 50 км 4/0
[Ci sp]
-34.1 -36.5 79 -45 -45 опасность
обморожения
1023.3 983.8
09 13.12 ЮВ 3 50 км 4/0
[Ci sp]
-33.1 -35.4 80 -43 -43 опасность
обморожения
1022.2 983.3 -29.6
12 13.12 ЮВ 2 50 км ясно -34.2 -36.5 80 -42 -42 опасность
обморожения
1021.4 982.3
15 13.12 ЮВ 2 50 км ясно -35.7 -38.1 78 -44 -44 опасность
обморожения
1020.5 981.1
18 13.12 В 2 50 км ясно -35.9 -38.1 80 -44 -44 опасность
обморожения
1020.1 980.7
21 13.12 ЮВ 2 50 км ясно -37.6 -39.9 79 -46 -46 опасность
обморожения
1018.4 978.8 -37.6 12
00 14.12 В 2 50 км ясно -37.4 -39.5 81 -46 -46 опасность
обморожения
1017.1 977.6
03 14.12 штиль 0 50 км ясно -39.2 -41.2 81 -39 -39 опасность
обморожения
1016.0 976.3
06 14.12 В 3 50 км 6/0
[Ac trans]
-35.2 -37.4 80 -46 -46 опасность
обморожения
1014.2 975.2
09 14.12 В 2 50 км 10/0
[As op]
-29.8 -32.2 80 -37 -37 опасность
обморожения
1012.1 974.0 -29.8
12 14.12 В 1 10 км слабый снег 10/0
[As op]
-26.0 -29.2 74 -30 -30 1010.6 973.2
15 14.12 штиль 0 50 км {снег} 10/0
[Ac trans Cs]
-26.1 -29.3 74 -26 -26 1009.9 972.5
18 14.12 штиль 0 50 км {снег} 10/0
[Ac trans Cs]
-27.2 -30.3 75 -27 -27 1009.8 972.2
21 14.12 В 2 50 км 6/0
[Ac trans Cs]
-28.2 -30.7 79 -35 -35 опасность
обморожения
1009.8 972.0 -30.5 0.2 13
00 15.12 ЮВ 2 50 км 8/0
[Ac trans Cs]
-29.4 -31.8 80 -37 -37 опасность
обморожения
1009.7 971.8
03 15.12 ЮВ 1 50 км 10/0
[As trans Cs]
-29.2 -31.6 80 -33 -33 опасность
обморожения
1009.5 971.6
06 15.12 штиль 0 50 км 10/0
[Ac As Cs]
-30.5 -33.0 79 -31 -31 опасность
обморожения
1009.5 971.4
09 15.12 ЮВ 1 50 км {снег} 10/0
[Ac As Cs]
-29.6 -32.0 80 -34 -34 опасность
обморожения
1009.9 971.8 -28.1 0.2
12 15.12 ЮВ 1 50 км {снег} 10/0
[Ac trans Cs]
-31.1 -33.4 80 -35 -35 опасность
обморожения
1010.1 971.9
15 15.12 штиль 0 50 км 10/0
[Ac trans Cs]
-33.4 -35.0 85 -33 -33 опасность
обморожения
1010.2 971.6
18 15.12 штиль 0 10 км слабый снег 10/0
[Ac trans Cs]
-33.6 -35.3 85 -34 -34 опасность
обморожения
1010.2 971.5
21 15.12 штиль 0 10 км слабый снег 10/0
[Ac trans Cs]
-28.5 -30.4 84 -29 -29 1008.2 970.4 -34.6 0.0 13
00 16.12 штиль 0 50 км в посл. час снег 10/0
[As op]
-27.3 -29.2 84 -27 -27 1007.4 969.9
03 16.12 штиль 0 50 км 10/0
[Ac trans Cs]
-25.7 -27.5 85 -26 -26 1007.0 969.7
06 16.12 штиль 0 50 км 9/0
[Ac trans]
-28.0 -29.8 84 -28 -28 1007.5 969.9
09 16.12 штиль 0 50 км 6/0
[Ci fib]
-28.3 -30.0 85 -28 -28 1007.9 970.3 -25.6 0.3
12 16.12 штиль 0 50 км 6/0
[Ci fib]
-33.5 -35.3 84 -34 -34 опасность
обморожения
1009.4 970.8
15 16.12 В 1 50 км 8/0
[Ci fib]
-33.4 -35.0 85 -38 -38 опасность
обморожения
1009.3 970.9
18 16.12 штиль 0 50 км 8/0
[Ci fib]
-33.6 -35.3 85 -34 -34 опасность
обморожения
1009.8 971.2
21 16.12 штиль 0 50 км 10/0
[Ci fib]
-29.5 -32.0 79 -30 -30 1009.3 971.3 -34.1 13
00 17.12 штиль 0 50 км 10/0
[Ac trans Cs]
-29.3 -31.1 84 -29 -29 1009.5 971.6
03 17.12 В 1 50 км 10/0
[Ac trans Cs]
-33.1 -35.6 78 -38 -38 опасность
обморожения
1009.3 970.9
06 17.12 штиль 0 50 км 10/0
[Ac trans Cs]
-34.6 -36.8 80 -35 -35 опасность
обморожения
1009.6 970.8
09 17.12 штиль 0 50 км 10/0
[Ci fib]
-34.2 -36.5 80 -34 -34 опасность
обморожения
1009.8 971.2 -29.2
12 17.12 штиль 0 50 км 10/0
[Ci fib]
-37.7 -39.9 80 -38 -38 опасность
обморожения
1011.0 971.6
15 17.12 штиль 0 50 км 10/0
[Cs]
-37.7 -39.9 80 -38 -38 опасность
обморожения
1011.1 971.7
18 17.12 штиль 0 50 км 10/0
[Cs]
-37.9 -40.3 78 -38 -38 опасность
обморожения
1011.2 971.9
21 17.12 штиль 0 50 км 10/0
[Cs]
-37.4 -38.9 86 -37 -37 опасность
обморожения
1011.7 972.5 -38.7 13
00 18.12 штиль 0 50 км 8/0
[Ac trans Ci fib]
-37.4 -39.5 81 -37 -37 опасность
обморожения
1011.9 972.7
03 18.12 ЮВ 2 50 км 10/0
[Ci sp]
-36.7 -38.8 81 -45 -45 опасность
обморожения
1011.7 972.9
06 18.12 В 2 50 км 10/0
[Ci sp]
-36.2 -38.4 80 -45 -45 опасность
обморожения
1012.4 973.3
09 18.12 В 2 50 км 6/0
[Ci fib]
-37.7 -39.9 80 -46 -46 опасность
обморожения
1013.5 974.1 -36.2
12 18.12 штиль 0 50 км 10/0
[Cs]
-40.3 -42.7 78 -40 -40 опасность
обморожения
1014.7 975.0
15 18.12 ЮВ 1 50 км 10/0
[Cs]
-39.8 -42.2 78 -45 -45 опасность
обморожения
1015.2 975.3
18 18.12 ЮВ 1 50 км 10/0
[Cs]
-39.4 -41.7 79 -45 -45 опасность
обморожения
1015.6 975.9
21 18.12 В 1 50 км 4/0
[Cs]
-41.9 -43.8 82 -47 -47 опасность
обморожения
1015.7 975.5 -41.9 13
00 19.12 В 2 50 км 3/0
[Cs]
-40.9 -43.2 78 -50 -50 опасность
обморожения
1015.7 975.7 -42.8

 

Местоположение метеостанции Усть-Чаркы (Якутия, Россия): широта 66.80 долгота 136.60 высота над уровнем моря 274 м.

В архиве по умолчанию представлена погода в Усть-Чарках за последнюю неделю. Архивные данные за месяц целиком и за предыдущие месяцы, начиная с января 2011 года, Вы можете получить, выбрав интересующий диапазон дат из раскрывающегося списка и нажав кнопку "Ввод!".


*Определитесь, кто Вы:
робот инопланетянин человек

Внимание! Время в таблицах - всемирное. Для получения местного времени необходимо прибавить поправку, которая в Усть-Чарках равна 10 ч.

Смотрите также архив погоды в соседних городах и на ближайших метеорологических станциях:

Погода в Батагае (Якутия, Россия) (128 км)
Погода в Верхоянске (Якутия, Россия) (162 км)
Погода в Иэме (Якутия, Россия) (171 км)
Погода в Екюччю (Якутия, Россия) (219 км)
Погода в Батагай-Алыте (Якутия, Россия) (288 км)
Погода в Усть-Моме (Якутия, Россия) (294 км)
Погода в Депутатском (Якутия, Россия) (316 км)
Погода в Томпо (Якутия, Россия) (319 км)
Погода в Себян-Кюеле (Якутия, Россия) (341 км)
Погода в Усть-Куйге (Якутия, Россия) (358 км)

Пояснения к столбцам:

Ветер - указаны скорость ветра в м/с - средняя за 10 мин, порывы в срок и между сроками (в фигурных скобках) и направление, откуда дует ветер: С - северный, СВ - северо-восточный, В - восточный, ЮВ - юго-восточный, Ю - южный, ЮЗ - юго-западный, З - западный, СЗ - северо-западный.
Видимость - горизонтальная дальность видимости в метрах или километрах. При видимости от 1 до 10 км при отсутствии осадков обычно наблюдается дымка, при ухудшении видимости до 1 км и менее - туман. В сухую погоду видимость может ухудшаться дымом, пылью или мглою.
Явления - указаны атмосферные явления, наблюдавшиеся в срок или в последний час перед сроком; фигурными скобками обозначены явления, наблюдавшиеся между сроками (за 1-3 часа до срока); квадратными скобками обозначены град или гололедные отложения с указанием их диаметра в мм.
Облачность - указаны через наклонную черту общая и нижняя облачность в баллах и высота нижней границы облаков в метрах; квадратными скобками обозначены формы облаков: Ci - перистые, Cs - перисто-слоистые, Cc - перисто-кучевые, Ac - высококучевые, As - высокослоистые, Sc - слоисто-кучевые, Ns - слоисто-дождевые, Cu - кучевые, Cb - кучево-дождевые. Подробнее классификацию облаков см. в Атласе облаков (PDF).
T - Температура воздуха - температура, измеренная на высоте 2 м над землей.
Td - Температура точки росы - температура, при понижении до которой содержащийся в воздухе водяной пар достигнет насыщения.
f - Относительная влажность воздуха - влажноcть воздуха, измеренная на высоте 2 м над землей.
Te - Эффективная температура - температура, которую ощущает одетый по сезону человек в тени. Характеристика душности погоды. При расчете учитывается влияние влажности воздуха и скорости ветра на теплоощущения человека.
Tes - Эффективная температура на солнце - температура, которую ощущает человек, с поправкой на солнечный нагрев. Характеристика знойности погоды. Зависит от высоты солнца над горизонтом, облачности и скорости ветра. Ночью, в пасмурную погоду, а также при ветре 12 м/с и более поправка равна нулю.
P - Атмосферное давление - приведенное к уровню моря атмосферное давление.
Po - Атмосферное давление - измеренное на уровне метеостанции атмосферное давление.
Tmin - Минимальная температура - минимум температуры воздуха на высоте 2 м над землей.
Tmax - Максимальная температура - максимум температуры воздуха на высоте 2 м над землей.
R - Количество осадков - Количество выпавших осадков за период времени, мм. При наведении курсора мыши на число - период времени, за который выпало указанное количество осадков.
R24 - Количество осадков - Количество выпавших осадков за 24 часа, мм.
S - Снежный покров - Высота снежного покрова, см. При наведении курсора мыши на число - состояние снежного покрова и степень покрытия местности в баллах.